Location: *
(50.9167°S, 179.4000°W)
Time: 21:55:21
(UTC+00:00)

Cosmos 1656 Rocket - Pass Details

Date: 03 March 2024
Orbit: 796 x 844 km, 71.1° (Epoch: 16 April)

Event Time Altitude Azimuth Distance (km) Brightness Sun altitude
Rises 13:08:05 0° 211° (SSW) 3,388 7.4 -31.2°
Reaches altitude 10° 13:10:32 10° 213° (SSW) 2,457 6.5 -31.1°
Enters shadow 13:14:19 43° 224° (SW) 1,160 4.5 -30.9°
